Location: Góry Miechowskie
(50.3599°N, 20.1803°E)
Time: 22:12:56
(UTC+00:00)

SR - All Passes

Search period start: 11 September 2024 00:00
Search period end: 21 September 2024 00:00
Orbit: 579 x 855 km, 66.7° (Epoch: 11 September)

Date Brightness Start Highest point End Pass type
(mag) Time Alt. Az. Time Alt. Az. Time Alt. Az.
11 Sep - 11:55:36 10° SSE 11:58:27 18° ESE 12:01:18 10° ENE daylight
11 Sep - 13:35:33 10° SW 13:39:46 65° NW 13:44:01 10° NNE daylight
11 Sep - 15:19:40 10° WNW 15:22:24 16° NNW 15:25:10 10° NNE daylight
11 Sep - 18:47:12 10° NNW 18:49:52 15° NNE 18:52:36 10° ENE visible
11 Sep - 20:28:13 10° NNW 20:32:39 51° NE 20:37:23 10° SE visible
11 Sep - 22:10:19 10° WNW 22:14:16 28° WSW 22:18:27 10° S visible
12 Sep - 12:42:44 10° SSW 12:46:55 61° ESE 12:51:08 10° NE daylight
12 Sep - 14:25:33 10° W 14:29:03 25° NW 14:32:38 10° NNE daylight
12 Sep - 16:11:41 10° NNW 16:12:27 10° N 16:13:12 10° N daylight
12 Sep - 17:54:47 10° N 17:56:20 12° NNE 17:57:54 10° NE visible
12 Sep - 19:35:33 10° NNW 19:39:33 30° NE 19:43:46 10° ESE visible
12 Sep - 21:17:05 10° NW 21:21:35 55° WSW 21:26:25 10° SSE visible
13 Sep - 11:50:36 10° S 11:54:15 29° ESE 11:57:55 10° NE daylight
13 Sep - 13:31:52 10° WSW 13:35:53 42° NW 13:39:59 10° NNE daylight
13 Sep - 15:16:46 10° NW 15:18:50 13° NNW 15:20:57 10° N daylight
13 Sep - 18:42:58 10° NNW 18:46:15 20° NNE 18:49:42 10° ENE visible
13 Sep - 20:24:10 10° NW 20:28:44 78° NE 20:33:40 10° SE visible
13 Sep - 22:06:55 10° WNW 22:10:05 18° WSW 22:13:24 10° SSW visible
14 Sep - 10:59:37 10° SE 11:01:46 14° ESE 11:03:53 10° ENE daylight
14 Sep - 12:38:39 10° SW 12:42:53 82° NW 12:47:11 10° NE daylight
14 Sep - 14:22:20 10° WNW 14:25:22 19° NNW 14:28:27 10° NNE daylight
14 Sep - 17:50:27 10° N 17:52:48 14° NNE 17:55:13 10° NE visible
14 Sep - 19:31:24 10° NNW 19:35:44 42° NE 19:40:22 10° ESE visible
14 Sep - 21:13:16 10° NW 21:17:29 35° WSW 21:22:00 10° S visible
15 Sep - 11:46:01 10° SSW 11:50:04 47° ESE 11:54:11 10° NE daylight
15 Sep - 13:28:19 10° W 13:32:03 29° NW 13:35:51 10° NNE daylight
15 Sep - 15:13:59 10° NNW 15:15:18 11° NNW 15:16:37 10° N daylight
15 Sep - 16:58:03 10° N 16:59:11 11° NNE 17:00:20 10° NNE daylight
15 Sep - 18:38:44 10° NNW 18:42:32 26° NE 18:46:33 10° E visible
15 Sep - 20:20:08 10° NW 20:24:44 70° SW 20:29:40 10° SSE visible
15 Sep - 22:04:25 10° W 22:05:48 11° WSW 22:07:13 10° WSW visible
16 Sep - 10:54:08 10° SSE 10:57:26 22° ESE 11:00:45 10° ENE daylight
16 Sep - 12:34:46 10° SW 12:38:54 52° NW 12:43:06 10° NNE daylight
16 Sep - 14:19:15 10° WNW 14:21:42 15° NNW 14:24:11 10° NNE daylight
16 Sep - 17:46:08 10° NNW 17:49:09 17° NNE 17:52:18 10° ENE visible
16 Sep - 19:27:15 10° NNW 19:31:48 63° NE 19:36:42 10° SE visible
16 Sep - 21:09:37 10° WNW 21:13:17 23° WSW 21:17:09 10° SSW visible
17 Sep - 10:04:23 10° ESE 10:04:58 10° ESE 10:05:33 10° E daylight
17 Sep - 11:41:43 10° SSW 11:45:56 78° ESE 11:50:14 10° NE daylight
17 Sep - 13:24:56 10° W 13:28:14 21° NNW 13:31:37 10° NNE daylight
17 Sep - 16:53:36 10° N 16:55:37 13° NNE 16:57:40 10° NE daylight
17 Sep - 18:34:29 10° NNW 18:38:41 35° NE 18:43:10 10° ESE visible
17 Sep - 20:16:10 10° NW 20:20:36 44° WSW 20:25:21 10° S visible
18 Sep - 10:49:16 10° S 10:53:09 36° ESE 10:57:04 10° NE daylight
18 Sep - 12:31:03 10° WSW 12:34:57 35° NW 12:38:56 10° NNE daylight
18 Sep - 14:16:18 10° NW 14:18:03 12° NNW 14:19:51 10° N daylight
18 Sep - 16:01:15 10° N 16:01:56 10° N 16:02:37 10° NNE daylight
18 Sep - 17:41:49 10° NNW 17:45:24 22° NE 17:49:11 10° E visible
18 Sep - 19:23:06 10° NW 19:27:44 86° SW 19:32:44 10° SSE visible
18 Sep - 21:06:22 10° WNW 21:08:57 15° WSW 21:11:39 10° SW visible
19 Sep - 09:57:44 10° SSE 10:00:33 17° ESE 10:03:22 10° ENE daylight
19 Sep - 11:37:37 10° SW 11:41:50 66° NW 11:46:07 10° NNE daylight
19 Sep - 13:21:41 10° WNW 13:24:28 17° NNW 13:27:18 10° NNE daylight
19 Sep - 16:49:12 10° NNW 16:51:56 16° NNE 16:54:46 10° ENE daylight
19 Sep - 18:30:14 10° NNW 18:34:43 51° NE 18:39:33 10° SE visible
19 Sep - 20:12:19 10° NW 20:16:22 29° WSW 20:20:39 10° S visible
20 Sep - 10:44:44 10° SSW 10:48:54 60° ESE 10:53:07 10° NE daylight
20 Sep - 12:27:29 10° W 12:31:02 25° NW 12:34:39 10° NNE daylight
20 Sep - 14:13:27 10° NNW 14:14:25 11° N 14:15:23 10° N daylight
20 Sep - 15:56:39 10° N 15:58:18 12° NNE 15:59:59 10° NE daylight
20 Sep - 17:37:29 10° NNW 17:41:32 30° NE 17:45:49 10° ESE visible
20 Sep - 19:19:01 10° NW 19:23:35 56° WSW 19:28:29 10° SSE visible
